Flag for India Weather past 2 weeks in Chennai, Tamil Nadu, India

Now
88 °F

Passing clouds.


Feels Like: 91 °F
Forecast: 86 / 98 °F
Wind: 14 mph from West

Location: Madras / Minambakkam

Current Time: Jul 7, 2015 at 8:36:40 AM

Latest Report: Jul 7, 2015 at 8:10 AM


Visibility: 4 mi

Pressure: 29.68 "Hg

Humidity: 52%

Dew point: 68 °F

Location of ChennaiLocation

Historic Weather in Chennai — Graph

°F

Chennai temperature yesterday

Maximum temperature yesterday: 104 °F (at 2:40 PM)
Minimum temperature yesterday: 86 °F (at 2:40 AM)
Average temperature yesterday: 92 °F

Past Weeks' High & Low Weather Summary

 TemperatureHumidityPressure
High104 °F (Jul 5, 2:40 PM)89% (Jun 27, 10:40 PM)29.83 "Hg (Jun 27, 10:40 PM)
Low81 °F (Jun 30, 1:10 AM)26% (Jul 6, 3:10 PM)29.53 "Hg (Jun 22, 3:40 PM)
Average91 °F57%29.69 "Hg
* Reported Jun 22 7:40 AM — Jul 7 7:40 AM, Chennai, Weather by CustomWeather, © 2015

Note: Actual official high and low records may vary slightly from our data, if they occured in-between our weather recording intervals... More about our weather records

Advertising

Chennai weather history for previous 24 hours

 ConditionsComfort  
Time TempWeatherWind HumidityBarometerVisibility
7:40 AM
Tue, Jul 7
88 °FPassing clouds.12 mph52%29.68 "Hg4 mi
6:40 AM86 °FPassing clouds.12 mph55%29.65 "Hg4 mi
6:10 AM86 °FPassing clouds.9 mph52%29.65 "Hg4 mi
5:40 AM86 °FPassing clouds.9 mph49%29.65 "Hg4 mi
5:10 AM88 °FPassing clouds.9 mph46%29.65 "Hg4 mi
4:40 AM88 °FPassing clouds.9 mph46%29.62 "Hg4 mi
4:10 AM88 °FPassing clouds.12 mph49%29.62 "Hg4 mi
3:40 AM88 °FPassing clouds.12 mph49%29.62 "Hg4 mi
3:10 AM90 °FPassing clouds.14 mph46%29.62 "Hg4 mi
2:40 AM88 °FPassing clouds.12 mph52%29.62 "Hg4 mi
2:10 AM88 °FPassing clouds.7 mph55%29.62 "Hg4 mi
1:40 AM88 °FPassing clouds.7 mph59%29.62 "Hg4 mi
1:10 AM88 °FPassing clouds.9 mph70%29.65 "Hg4 mi
12:40 AM88 °FPassing clouds.6 mph75%29.65 "Hg4 mi
12:10 AM88 °FPassing clouds.5 mph79%29.65 "Hg4 mi
11:40 PM
Mon, Jul 6
88 °FPassing clouds.5 mph79%29.65 "Hg4 mi
11:10 PM88 °FPassing clouds.5 mph79%29.65 "Hg4 mi
10:40 PM88 °FPassing clouds.7 mph79%29.68 "Hg4 mi
10:10 PM88 °FPassing clouds.12 mph75%29.65 "Hg4 mi
9:40 PM90 °FPassing clouds.12 mph67%29.65 "Hg4 mi
9:10 PM90 °FPassing clouds.9 mph67%29.65 "Hg4 mi
8:40 PM90 °FPassing clouds.3 mph67%29.65 "Hg4 mi
8:10 PM90 °FPassing clouds.3 mph71%29.62 "Hg4 mi
7:40 PM90 °FPassing clouds.9 mph71%29.62 "Hg4 mi
7:10 PM91 °FPassing clouds.12 mph63%29.62 "Hg4 mi
6:40 PM93 °FPassing clouds.14 mph56%29.59 "Hg4 mi
5:40 PM100 °FPassing clouds.12 mph29%29.59 "Hg5 mi
3:10 PM104 °FPassing clouds.14 mph26%29.59 "Hg5 mi
2:40 PM104 °FPassing clouds.9 mph28%29.59 "Hg5 mi
2:10 PM102 °FPassing clouds.9 mph27%29.59 "Hg5 mi
1:40 PM102 °FPassing clouds.12 mph29%29.62 "Hg5 mi
1:10 PM102 °FPassing clouds.10 mph29%29.62 "Hg5 mi
12:40 PM100 °FPassing clouds.8 mph33%29.65 "Hg5 mi
12:10 PM100 °FPassing clouds.12 mph33%29.65 "Hg5 mi
11:40 AM99 °FPassing clouds.13 mph35%29.65 "Hg5 mi
11:10 AM97 °FPassing clouds.17 mph37%29.65 "Hg5 mi
10:40 AM97 °FPassing clouds.12 mph37%29.68 "Hg5 mi
10:10 AM95 °FPassing clouds.17 mph39%29.68 "Hg4 mi
9:40 AM93 °FPassing clouds.13 mph41%29.68 "Hg4 mi
9:10 AM93 °FPassing clouds.15 mph44%29.68 "Hg4 mi
8:40 AM91 °FPassing clouds.9 mph46%29.68 "Hg4 mi
8:10 AM91 °FPassing clouds.14 mph49%29.68 "Hg4 mi
Weather by CustomWeather, © 2015

See weather overviewHow to use our weather pages